Lid_Strength_Index
13 12 13 14 14 14 15 15 17 15 15 13 12 11 11 10 11 11 11 11 11 12 12 12 14 14 14 14 15 15 17 18 19 20 20 20 21 22 22 23 23 23 23 23
16 15 14 16 14 14 14 14 14 14 15 12 11 10 11 11 10 10 10 9 9 11 13 13 14 14 15 15 15 16 18 19 19 20 21 21 23 23 23 23 23 23 24 24
17 14 15 17 15 14 13 12 13 15 12 10 11 11 10 10 9 9 9 9 11 11 12 13 13 14 15 15 15 17 18 19 20 21 22 23 23 23 23 23 23 24 24 24
17 15 21 14 11 11 12 12 11 11 10 10 10 9 9 8 9 9 9 9 9 11 11 12 13 15 15 15 16 18 19 20 21 22 23 23 23 23 23 23 24 24 24 23
18 18 15 13 11 12 12 13 10 10 10 9 8 8 9 7 7 7 7 7 8 10 10 11 14 15 16 17 18 19 20 21 21 21 22 23 23 24 23 23 24 23 24 24
16 19 21 13 9 8 8 15 9 9 9 8 8 12 10 7 7 9 8 9 10 11 11 14 16 16 16 18 19 19 20 20 21 20 22 23 23 23 23 23 24 24 24 24
16 18 16 11 9 9 16 14 8 7 8 8 9 8 7 8 9 10 10 10 11 12 13 14 16 16 17 19 20 19 19 20 21 21 22 22 24 23 23 23 23 24 24 24
15 17 19 9 10 13 10 8 9 10 9 9 9 8 8 9 10 10 11 13 13 14 14 16 17 17 18 20 19 20 21 22 22 23 23 23 24 25 25 24 25 25 24 24
16 15 11 10 12 12 9 12 11 11 10 10 10 9 9 9 9 10 11 12 14 16 17 17 17 17 19 19 20 21 22 24 25 25 25 25 26 26 25 25 24 24 23 23
17 13 14 14 12 11 11 13 12 12 12 11 11 10 10 10 10 10 13 13 18 18 19 20 20 18 19 20 21 23 24 25 26 26 26 26 25 24 24 24 24 23 23 23
17 15 14 12 12 12 12 13 14 13 12 12 12 12 11 10 10 9 11 16 17 17 16 16 19 19 20 21 22 23 24 25 26 26 26 25 24 24 23 22 22 23 23 23
17 13 13 13 13 12 16 16 16 13 14 13 13 13 12 12 11 11 11 12 16 16 16 17 19 19 21 22 23 24 24 26 26 26 25 24 24 24 20 20 18 19 19 21
12 15 14 12 12 13 15 16 17 18 17 17 16 14 13 12 12 11 11 11 11 16 16 16 19 19 22 23 23 23 23 25 25 25 25 25 25 25 24 21 18 19 20 19
12 15 15 14 16 15 15 16 16 17 18 18 18 17 17 16 14 13 12 11 11 14 14 17 18 18 21 23 23 23 22 24 24 24 24 24 24 24 24 25 25 25 21 20
14 14 15 15 15 16 16 16 19 19 19 19 20 21 20 21 20 18 16 14 13 12 14 18 18 20 21 21 22 23 23 24 23 23 23 23 22 23 24 25 26 26 26 21
16 16 15 17 18 18 18 20 21 21 21 21 22 22 21 20 20 19 18 16 15 14 12 16 17 18 21 20 20 21 22 22 22 23 23 24 24 25 25 25 26 26 26 26
19 21 20 20 20 20 21 20 20 21 22 22 23 22 22 21 21 19 18 15 12 9 8 14 16 20 19 19 20 21 22 23 23 24 24 24 25 26 26 26 26 26 26 26
19 19 19 19 21 21 21 21 22 22 23 22 22 22 22 20 19 17 15 14 12 13 15 16 20 20 20 21 20 22 23 25 25 25 25 25 25 26 25 26 26 26 27 24
20 21 21 21 21 22 22 23 23 22 23 22 23 22 21 19 18 17 14 14 17 20 24 21 18 21 21 22 23 23 24 25 26 26 26 26 27 26 26 27 27 27 28 26
23 22 23 23 22 23 24 23 23 24 23 22 22 22 22 21 20 22 24 26 24 25 23 21 22 23 24 22 23 24 25 26 27 27 27 26 27 27 27 27 28 30 30 31
25 24 24 24 23 23 23 23 24 24 23 23 22 22 22 25 26 24 26 27 25 23 23 23 24 24 24 25 24 25 26 27 27 27 26 27 28 28 28 28 29 29 31 30
25 25 25 24 25 25 25 25 24 24 25 24 23 24 25 25 26 26 26 26 25 24 25 25 26 25 25 25 26 26 26 26 26 26 27 27 27 27 28 28 29 30 31 32
25 26 25 25 26 26 26 25 24 25 26 27 27 26 27 26 25 28 29 26 25 26 26 26 25 25 25 26 26 26 26 26 26 26 26 26 27 28 28 29 30 30 32 33
26 25 25 24 25 26 27 26 25 25 26 26 27 26 26 27 27 25 25 26 26 26 26 25 24 23 25 26 26 26 26 26 26 26 27 27 28 28 29 30 30 32 34 35
26 25 25 26 26 27 27 26 26 26 26 26 26 26 25 25 27 26 25 25 23 25 25 24 23 24 25 26 26 26 26 27 27 27 28 28 29 30 31 31 31 36 38 37
25 25 25 25 26 26 27 26 27 27 27 27 27 26 25 24 24 24 25 26 26 26 26 26 26 26 26 26 27 27 27 27 27 27 28 29 29 29 30 30 33 34 36 36
25 24 25 25 25 26 26 27 27 27 26 26 27 25 25 26 26 26 26 26 26 26 26 26 26 26 26 26 26 26 27 27 27 27 28 28 28 29 28 30 31 31 30 29